Terminal Aerodrome Forecast
Issued by NWS North Platte, NE

Home | Current Version | Previous Version | Text Only | Print | Product List | Glossary On
Versions: 1 2 3 4 5 6 7 8 9 10 11 12 13 14 15 16 17 18 19 20 21 22 23
000
FTUS43 KLBF 062300
TAFVTN
TAF
KVTN 062320Z 0700/0724 01008KT P6SM SCT050 BKN070
     FM070100 VRB03KT P6SM FEW050
     FM071400 17006KT P6SM BKN250=

USA.gov is the U.S. government's official web portal to all federal, state and local government web resources and services.